contact: severine.martini@mio.osupytheas.fr, dominique.lefevre@mio.osupytheas.fr
Project:EMSO Ligure-ouest http://www.emso-fr.org/EMSO-France
Sensor Optode, line 4330 Serial 272 
DOI : "https://doi.org/10.17882/97948" 
Title:EMSO Ligure Ouest : Data BathyDock capteur Optode - deploiement "2023-04-28"
Datetime,Profondeur,Latitude,Longitude,optode_type,serial,O2_concentration,O2_saturation,Temperature,Calibrated_Phase,Temp_Compensated_Phase,phase_blue_light,phase_red_light,Amplitude_blue_light,Amplitude_red_light,thermistor_bridge
time,m,degree_north,degree_east,1,1,umol.l-1,%,degree_C,degree,degree,degree,degree,mV,mV,mV
2023-12-11T00:00:08,2420,42.8014,5.9826,4330,272,186.455,57.100,13.305,36.043,36.623,41.213,4.591,295.8,545.1,291.4
2023-12-11T00:03:07,2420,42.8014,5.9826,4330,272,186.294,57.053,13.307,36.052,36.632,41.223,4.592,295.8,545.1,291.3
2023-12-11T00:06:07,2420,42.8014,5.9826,4330,272,186.270,57.045,13.307,36.054,36.634,41.219,4.585,295.9,545.1,291.3
2023-12-11T00:09:07,2420,42.8014,5.9826,4330,272,186.133,57.003,13.307,36.063,36.643,41.232,4.589,295.9,545.1,291.3
2023-12-11T00:12:07,2420,42.8014,5.9826,4330,272,186.135,57.005,13.308,36.062,36.642,41.228,4.586,295.8,545.1,291.3
2023-12-11T00:15:07,2420,42.8014,5.9826,4330,272,186.346,57.069,13.307,36.049,36.629,41.217,4.588,295.8,545.0,291.3
2023-12-11T00:18:07,2420,42.8014,5.9826,4330,272,186.126,57.004,13.309,36.062,36.642,41.222,4.580,295.8,545.1,291.3
2023-12-11T00:21:08,2420,42.8014,5.9826,4330,272,186.072,56.985,13.307,36.067,36.646,41.235,4.588,295.9,545.1,291.3
2023-12-11T00:24:08,2420,42.8014,5.9826,4330,272,186.440,57.098,13.307,36.042,36.622,41.213,4.591,295.8,545.1,291.3
2023-12-11T00:27:08,2420,42.8014,5.9826,4330,272,186.366,57.073,13.306,36.048,36.628,41.213,4.585,295.9,545.1,291.4
2023-12-11T00:30:08,2420,42.8014,5.9826,4330,272,186.327,57.061,13.305,36.051,36.630,41.222,4.592,295.8,545.1,291.4
2023-12-11T00:33:07,2420,42.8014,5.9826,4330,272,186.248,57.035,13.304,36.057,36.637,41.225,4.588,295.8,545.1,291.4
2023-12-11T00:36:07,2420,42.8014,5.9826,4330,272,186.375,57.079,13.308,36.047,36.627,41.217,4.590,295.8,545.1,291.3
2023-12-11T00:39:07,2420,42.8014,5.9826,4330,272,186.148,57.010,13.308,36.061,36.641,41.229,4.588,295.8,545.1,291.3
2023-12-11T00:42:07,2420,42.8014,5.9826,4330,272,186.356,57.071,13.306,36.048,36.628,41.217,4.589,295.8,545.1,291.3
2023-12-11T00:45:08,2420,42.8014,5.9826,4330,272,186.326,57.069,13.312,36.047,36.627,41.214,4.586,295.8,545.2,291.2
2023-12-11T00:48:08,2420,42.8014,5.9826,4330,272,186.179,57.018,13.307,36.060,36.639,41.227,4.588,295.8,545.1,291.3
2023-12-11T00:51:08,2420,42.8014,5.9826,4330,272,186.112,57.001,13.310,36.063,36.642,41.234,4.592,295.8,545.1,291.2
2023-12-11T00:54:08,2420,42.8014,5.9826,4330,272,186.227,57.030,13.306,36.057,36.637,41.224,4.587,295.9,545.0,291.4
2023-12-11T00:57:07,2420,42.8014,5.9826,4330,272,186.040,56.972,13.305,36.070,36.650,41.234,4.584,295.8,545.1,291.4
2023-12-11T01:00:07,2420,42.8014,5.9826,4330,272,186.197,57.024,13.307,36.058,36.638,41.227,4.589,295.7,545.1,291.3
2023-12-11T01:03:08,2420,42.8014,5.9826,4330,272,186.556,57.133,13.307,36.035,36.615,41.206,4.590,295.8,545.1,291.3
2023-12-11T01:06:07,2420,42.8014,5.9826,4330,272,186.253,57.042,13.308,36.054,36.634,41.219,4.585,295.7,545.1,291.3
2023-12-11T01:09:07,2420,42.8014,5.9826,4330,272,186.452,57.100,13.306,36.042,36.622,41.211,4.588,295.8,545.1,291.3
2023-12-11T01:12:07,2420,42.8014,5.9826,4330,272,186.200,57.023,13.306,36.059,36.639,41.224,4.585,295.8,545.1,291.4
2023-12-11T01:15:07,2420,42.8014,5.9826,4330,272,186.337,57.065,13.306,36.049,36.629,41.214,4.585,295.9,545.0,291.4
2023-12-11T01:18:08,2420,42.8014,5.9826,4330,272,186.393,57.085,13.309,36.045,36.625,41.212,4.587,295.8,545.1,291.3
2023-12-11T01:21:08,2420,42.8014,5.9826,4330,272,186.426,57.099,13.311,36.042,36.622,41.216,4.594,295.8,545.1,291.2
2023-12-11T01:24:08,2420,42.8014,5.9826,4330,272,186.257,57.042,13.307,36.055,36.635,41.219,4.584,295.8,545.1,291.3
2023-12-11T01:27:08,2420,42.8014,5.9826,4330,272,186.491,57.115,13.308,36.039,36.619,41.204,4.585,295.8,545.1,291.3
2023-12-11T01:30:08,2420,42.8014,5.9826,4330,272,186.324,57.067,13.311,36.048,36.628,41.217,4.589,295.8,545.1,291.2
2023-12-11T01:33:07,2420,42.8014,5.9826,4330,272,186.329,57.065,13.308,36.049,36.629,41.214,4.585,295.7,545.1,291.3
2023-12-11T01:36:07,2420,42.8014,5.9826,4330,272,186.280,57.052,13.310,36.052,36.632,41.220,4.589,295.9,545.0,291.2
2023-12-11T01:39:07,2420,42.8014,5.9826,4330,272,186.371,57.079,13.309,36.046,36.626,41.213,4.586,295.8,545.1,291.3
2023-12-11T01:42:07,2420,42.8014,5.9826,4330,272,186.311,57.063,13.311,36.049,36.629,41.215,4.587,295.8,545.1,291.2
2023-12-11T01:45:08,2420,42.8014,5.9826,4330,272,186.252,57.044,13.310,36.053,36.633,41.220,4.586,295.8,545.1,291.2
2023-12-11T01:48:08,2420,42.8014,5.9826,4330,272,186.256,57.047,13.312,36.052,36.632,41.221,4.589,295.8,545.1,291.2
2023-12-11T01:51:08,2420,42.8014,5.9826,4330,272,186.255,57.045,13.310,36.053,36.633,41.219,4.587,295.8,545.1,291.2
2023-12-11T01:54:08,2420,42.8014,5.9826,4330,272,186.441,57.098,13.307,36.043,36.623,41.211,4.588,295.8,545.1,291.3
2023-12-11T01:57:07,2420,42.8014,5.9826,4330,272,186.057,56.983,13.309,36.067,36.646,41.229,4.583,295.7,545.0,291.3
2023-12-11T02:00:07,2420,42.8014,5.9826,4330,272,186.445,57.104,13.311,36.040,36.620,41.211,4.591,295.8,545.0,291.2
2023-12-11T02:03:07,2420,42.8014,5.9826,4330,272,186.164,57.028,13.319,36.055,36.635,41.223,4.588,295.8,545.1,290.9
2023-12-11T02:06:07,2420,42.8014,5.9826,4330,272,186.445,57.110,13.315,36.038,36.618,41.209,4.590,295.8,545.1,291.0
2023-12-11T02:09:07,2420,42.8014,5.9826,4330,272,186.530,57.134,13.314,36.034,36.614,41.204,4.590,295.8,545.1,291.1
2023-12-11T02:12:07,2420,42.8014,5.9826,4330,272,186.157,57.017,13.312,36.058,36.638,41.224,4.586,295.8,545.1,291.2
2023-12-11T02:15:07,2420,42.8014,5.9826,4330,272,186.108,57.003,13.312,36.062,36.642,41.223,4.582,295.7,545.0,291.2
2023-12-11T02:18:07,2420,42.8014,5.9826,4330,272,186.486,57.122,13.315,36.035,36.615,41.202,4.587,295.8,545.1,291.1
2023-12-11T02:21:07,2420,42.8014,5.9826,4330,272,186.250,57.053,13.318,36.050,36.630,41.217,4.587,295.7,545.1,291.0
2023-12-11T02:24:08,2420,42.8014,5.9826,4330,272,186.122,57.003,13.310,36.062,36.642,41.228,4.587,295.8,545.0,291.2
2023-12-11T02:27:08,2420,42.8014,5.9826,4330,272,186.128,57.004,13.308,36.062,36.642,41.226,4.584,295.8,545.1,291.3
2023-12-11T02:30:08,2420,42.8014,5.9826,4330,272,186.146,57.007,13.307,36.062,36.642,41.229,4.587,295.7,545.1,291.3
2023-12-11T02:33:07,2420,42.8014,5.9826,4330,272,186.228,57.034,13.308,36.056,36.636,41.225,4.589,295.8,545.1,291.3
2023-12-11T02:36:07,2420,42.8014,5.9826,4330,272,186.326,57.070,13.313,36.047,36.627,41.219,4.592,295.8,545.1,291.1
2023-12-11T02:39:07,2420,42.8014,5.9826,4330,272,186.257,57.042,13.307,36.055,36.635,41.219,4.584,295.8,545.0,291.3
2023-12-11T02:42:07,2420,42.8014,5.9826,4330,272,186.414,57.089,13.306,36.044,36.624,41.213,4.589,295.8,545.1,291.3
2023-12-11T02:45:07,2420,42.8014,5.9826,4330,272,186.394,57.101,13.320,36.039,36.619,41.209,4.590,295.8,545.0,290.9
2023-12-11T02:48:07,2420,42.8014,5.9826,4330,272,186.288,57.064,13.317,36.047,36.627,41.212,4.585,295.7,545.1,291.0
2023-12-11T02:51:08,2420,42.8014,5.9826,4330,272,186.372,57.081,13.311,36.045,36.625,41.211,4.586,295.8,545.1,291.2
2023-12-11T02:54:08,2420,42.8014,5.9826,4330,272,186.426,57.099,13.312,36.041,36.621,41.207,4.585,295.8,545.1,291.2
2023-12-11T02:57:08,2420,42.8014,5.9826,4330,272,186.407,57.090,13.309,36.044,36.624,41.218,4.594,295.8,545.1,291.3
2023-12-11T03:00:08,2420,42.8014,5.9826,4330,272,186.510,57.121,13.309,36.037,36.617,41.202,4.585,295.7,545.0,291.3
2023-12-11T03:03:07,2420,42.8014,5.9826,4330,272,186.149,57.016,13.313,36.058,36.638,41.227,4.588,295.8,545.1,291.1
2023-12-11T03:06:08,2420,42.8014,5.9826,4330,272,186.222,57.030,13.307,36.057,36.637,41.224,4.587,295.8,545.0,291.3
2023-12-11T03:09:08,2420,42.8014,5.9826,4330,272,186.376,57.079,13.308,36.046,36.626,41.214,4.588,295.8,545.1,291.3
2023-12-11T03:12:07,2420,42.8014,5.9826,4330,272,186.630,57.157,13.308,36.030,36.610,41.203,4.593,295.8,545.0,291.3
2023-12-11T03:15:07,2420,42.8014,5.9826,4330,272,186.299,57.055,13.307,36.052,36.632,41.222,4.590,295.7,545.1,291.3
2023-12-11T03:18:07,2420,42.8014,5.9826,4330,272,186.454,57.104,13.309,36.041,36.621,41.205,4.584,295.7,545.1,291.3
2023-12-11T03:21:07,2420,42.8014,5.9826,4330,272,186.323,57.063,13.308,36.050,36.630,41.218,4.589,295.7,545.1,291.3
2023-12-11T03:24:08,2420,42.8014,5.9826,4330,272,186.480,57.111,13.308,36.039,36.619,41.209,4.590,295.7,545.1,291.3
2023-12-11T03:27:08,2420,42.8014,5.9826,4330,272,186.804,57.213,13.310,36.018,36.598,41.190,4.592,295.7,545.0,291.2
2023-12-11T03:30:08,2420,42.8014,5.9826,4330,272,186.659,57.171,13.312,36.026,36.606,41.197,4.591,295.8,545.0,291.2
2023-12-11T03:33:07,2420,42.8014,5.9826,4330,272,186.224,57.033,13.309,36.056,36.636,41.223,4.587,295.7,545.0,291.3
2023-12-11T03:36:07,2420,42.8014,5.9826,4330,272,186.450,57.103,13.309,36.041,36.621,41.215,4.594,295.8,545.0,291.3
2023-12-11T03:39:07,2420,42.8014,5.9826,4330,272,186.405,57.098,13.315,36.041,36.621,41.209,4.588,295.7,545.0,291.1
2023-12-11T03:42:07,2420,42.8014,5.9826,4330,272,186.530,57.138,13.317,36.031,36.611,41.201,4.589,295.7,545.0,291.0
2023-12-11T03:45:07,2420,42.8014,5.9826,4330,272,186.150,57.026,13.321,36.055,36.635,41.219,4.584,295.8,545.0,290.9
2023-12-11T03:48:08,2420,42.8014,5.9826,4330,272,186.288,57.069,13.321,36.046,36.626,41.216,4.590,295.8,545.0,290.9
2023-12-11T03:51:08,2420,42.8014,5.9826,4330,272,186.361,57.082,13.314,36.045,36.625,41.212,4.587,295.7,545.0,291.1
2023-12-11T03:54:08,2420,42.8014,5.9826,4330,272,186.180,57.027,13.314,36.057,36.636,41.226,4.590,295.8,545.0,291.1
2023-12-11T03:57:07,2420,42.8014,5.9826,4330,272,186.316,57.083,13.325,36.042,36.622,41.208,4.586,295.7,545.0,290.7
2023-12-11T04:00:07,2420,42.8014,5.9826,4330,272,186.247,57.055,13.320,36.049,36.629,41.214,4.585,295.8,545.0,290.9
2023-12-11T04:03:08,2420,42.8014,5.9826,4330,272,186.162,57.024,13.316,36.056,36.636,41.223,4.587,295.7,545.1,291.0
2023-12-11T04:06:08,2420,42.8014,5.9826,4330,272,186.033,56.993,13.323,36.061,36.641,41.230,4.588,295.7,545.0,290.8
2023-12-11T04:09:08,2420,42.8014,5.9826,4330,272,186.353,57.093,13.324,36.040,36.620,41.208,4.588,295.8,545.0,290.8
2023-12-11T04:12:07,2420,42.8014,5.9826,4330,272,186.214,57.054,13.327,36.048,36.628,41.213,4.586,295.8,545.1,290.7
2023-12-11T04:15:07,2420,42.8014,5.9826,4330,272,186.264,57.069,13.327,36.044,36.624,41.212,4.588,295.7,545.0,290.7
2023-12-11T04:18:07,2420,42.8014,5.9826,4330,272,186.288,57.067,13.320,36.047,36.627,41.214,4.588,295.7,544.9,290.9
2023-12-11T04:21:07,2420,42.8014,5.9826,4330,272,186.512,57.139,13.322,36.030,36.610,41.205,4.595,295.7,545.0,290.8
2023-12-11T04:24:07,2420,42.8014,5.9826,4330,272,186.120,57.017,13.321,36.056,36.636,41.223,4.586,295.8,545.0,290.9
2023-12-11T04:27:07,2420,42.8014,5.9826,4330,272,186.188,57.034,13.317,36.054,36.634,41.226,4.592,295.8,545.0,291.0
2023-12-11T04:30:08,2420,42.8014,5.9826,4330,272,186.343,57.082,13.318,36.044,36.624,41.214,4.591,295.8,545.0,291.0
2023-12-11T04:33:07,2420,42.8014,5.9826,4330,272,186.104,57.006,13.315,36.060,36.640,41.227,4.587,295.8,545.0,291.0
2023-12-11T04:36:07,2420,42.8014,5.9826,4330,272,186.214,57.051,13.325,36.049,36.629,41.220,4.591,295.7,545.0,290.7
2023-12-11T04:39:07,2420,42.8014,5.9826,4330,272,186.325,57.085,13.325,36.041,36.621,41.212,4.590,295.7,545.0,290.7
2023-12-11T04:42:08,2420,42.8014,5.9826,4330,272,186.414,57.107,13.321,36.037,36.617,41.208,4.590,295.7,545.0,290.9
2023-12-11T04:45:08,2420,42.8014,5.9826,4330,272,186.208,57.052,13.328,36.048,36.628,41.214,4.586,295.7,544.9,290.7
2023-12-11T04:48:08,2420,42.8014,5.9826,4330,272,186.401,57.103,13.320,36.039,36.619,41.204,4.585,295.8,544.9,290.9
2023-12-11T04:51:08,2420,42.8014,5.9826,4330,272,186.087,57.006,13.320,36.059,36.639,41.226,4.587,295.9,545.0,290.9
2023-12-11T04:54:07,2420,42.8014,5.9826,4330,272,186.312,57.071,13.317,36.046,36.626,41.216,4.590,295.8,544.9,291.0
2023-12-11T04:57:07,2420,42.8014,5.9826,4330,272,185.917,56.959,13.324,36.068,36.648,41.232,4.584,295.8,545.0,290.8
2023-12-11T05:00:07,2420,42.8014,5.9826,4330,272,186.194,57.032,13.315,36.055,36.635,41.223,4.588,295.8,545.0,291.1
2023-12-11T05:03:07,2420,42.8014,5.9826,4330,272,186.170,57.024,13.315,36.057,36.637,41.222,4.585,295.8,545.0,291.1
2023-12-11T05:06:07,2420,42.8014,5.9826,4330,272,186.265,57.057,13.317,36.049,36.629,41.218,4.589,295.9,545.0,291.0
2023-12-11T05:09:07,2420,42.8014,5.9826,4330,272,186.241,57.051,13.318,36.050,36.630,41.215,4.584,295.7,545.0,291.0
2023-12-11T05:12:07,2420,42.8014,5.9826,4330,272,186.258,57.057,13.319,36.049,36.629,41.216,4.587,295.8,545.0,290.9
2023-12-11T05:15:07,2420,42.8014,5.9826,4330,272,186.249,57.054,13.319,36.049,36.629,41.219,4.590,295.8,544.9,290.9
2023-12-11T05:18:07,2420,42.8014,5.9826,4330,272,186.178,57.030,13.317,36.055,36.635,41.227,4.593,295.8,545.0,291.0
2023-12-11T05:21:07,2420,42.8014,5.9826,4330,272,186.071,56.997,13.317,36.062,36.641,41.230,4.589,295.9,545.0,291.0
2023-12-11T05:24:08,2420,42.8014,5.9826,4330,272,185.801,56.909,13.313,36.081,36.661,41.247,4.586,295.7,545.1,291.1
2023-12-11T05:27:08,2420,42.8014,5.9826,4330,272,186.515,57.133,13.316,36.033,36.614,41.197,4.584,295.8,545.0,291.0
2023-12-11T05:30:08,2420,42.8014,5.9826,4330,272,186.344,57.075,13.312,36.046,36.626,41.218,4.592,295.8,545.1,291.2
2023-12-11T05:33:07,2420,42.8014,5.9826,4330,272,186.092,56.999,13.313,36.062,36.642,41.228,4.586,295.8,545.0,291.1
2023-12-11T05:36:07,2420,42.8014,5.9826,4330,272,186.299,57.060,13.312,36.050,36.630,41.216,4.586,295.9,545.1,291.2
2023-12-11T05:39:07,2420,42.8014,5.9826,4330,272,186.395,57.089,13.311,36.043,36.623,41.211,4.588,295.8,545.0,291.2
2023-12-11T05:42:08,2420,42.8014,5.9826,4330,272,186.608,57.154,13.311,36.029,36.610,41.197,4.588,295.8,545.0,291.2
2023-12-11T05:45:08,2420,42.8014,5.9826,4330,272,186.285,57.054,13.310,36.051,36.631,41.220,4.588,295.8,545.1,291.2
2023-12-11T05:48:08,2420,42.8014,5.9826,4330,272,186.376,57.086,13.313,36.043,36.623,41.215,4.592,295.8,545.1,291.1
2023-12-11T05:51:08,2420,42.8014,5.9826,4330,272,186.343,57.072,13.310,36.047,36.627,41.213,4.586,295.8,545.0,291.2
2023-12-11T05:54:07,2420,42.8014,5.9826,4330,272,185.791,56.903,13.310,36.084,36.663,41.251,4.587,295.8,545.1,291.2
2023-12-11T05:57:07,2420,42.8014,5.9826,4330,272,186.137,57.009,13.310,36.061,36.641,41.229,4.588,295.8,545.0,291.2
2023-12-11T06:00:07,2420,42.8014,5.9826,4330,272,186.400,57.089,13.310,36.044,36.624,41.215,4.591,295.7,545.1,291.2
2023-12-11T06:03:08,2420,42.8014,5.9826,4330,272,186.314,57.062,13.310,36.050,36.630,41.218,4.588,295.8,545.0,291.2
2023-12-11T06:06:07,2420,42.8014,5.9826,4330,272,186.345,57.072,13.310,36.048,36.628,41.213,4.586,295.8,545.1,291.2
2023-12-11T06:09:07,2420,42.8014,5.9826,4330,272,186.700,57.180,13.309,36.025,36.605,41.195,4.590,295.7,545.1,291.3
2023-12-11T06:12:07,2420,42.8014,5.9826,4330,272,186.620,57.156,13.309,36.029,36.609,41.201,4.591,295.6,545.1,291.2
2023-12-11T06:15:08,2420,42.8014,5.9826,4330,272,186.324,57.064,13.308,36.050,36.630,41.219,4.589,295.8,545.1,291.3
2023-12-11T06:18:08,2420,42.8014,5.9826,4330,272,186.350,57.073,13.310,36.047,36.627,41.215,4.588,295.8,545.1,291.2
2023-12-11T06:21:08,2420,42.8014,5.9826,4330,272,186.131,57.005,13.308,36.062,36.642,41.232,4.590,295.8,545.1,291.3
2023-12-11T06:24:08,2420,42.8014,5.9826,4330,272,186.388,57.083,13.308,36.045,36.625,41.214,4.588,295.7,545.1,291.3
2023-12-11T06:27:07,2420,42.8014,5.9826,4330,272,186.422,57.094,13.308,36.043,36.623,41.213,4.590,295.7,545.0,291.3
2023-12-11T06:30:07,2420,42.8014,5.9826,4330,272,186.380,57.079,13.307,36.047,36.627,41.213,4.586,295.7,545.0,291.3
2023-12-11T06:33:07,2420,42.8014,5.9826,4330,272,186.276,57.048,13.308,36.053,36.633,41.221,4.588,295.7,545.1,291.3
2023-12-11T06:36:07,2420,42.8014,5.9826,4330,272,186.347,57.070,13.307,36.048,36.628,41.219,4.591,295.7,545.1,291.3
2023-12-11T06:39:07,2420,42.8014,5.9826,4330,272,186.414,57.089,13.306,36.045,36.625,41.216,4.591,295.8,545.1,291.4
2023-12-11T06:42:07,2420,42.8014,5.9826,4330,272,186.253,57.042,13.308,36.054,36.634,41.219,4.584,295.8,545.1,291.3
2023-12-11T06:45:08,2420,42.8014,5.9826,4330,272,186.375,57.078,13.307,36.047,36.627,41.216,4.589,295.7,545.1,291.3
2023-12-11T06:48:08,2420,42.8014,5.9826,4330,272,186.358,57.073,13.308,36.048,36.628,41.216,4.588,295.7,545.1,291.3
2023-12-11T06:51:08,2420,42.8014,5.9826,4330,272,186.480,57.109,13.306,36.040,36.620,41.210,4.589,295.8,545.2,291.4
2023-12-11T06:54:08,2420,42.8014,5.9826,4330,272,186.477,57.108,13.306,36.040,36.620,41.206,4.585,295.5,545.1,291.3
2023-12-11T06:57:08,2420,42.8014,5.9826,4330,272,186.215,57.029,13.308,36.057,36.637,41.225,4.588,295.8,545.1,291.3
2023-12-11T07:00:07,2420,42.8014,5.9826,4330,272,186.399,57.087,13.309,36.045,36.625,41.211,4.586,295.7,545.1,291.3
2023-12-11T07:03:07,2420,42.8014,5.9826,4330,272,186.724,57.183,13.306,36.024,36.604,41.193,4.588,295.7,545.1,291.4
2023-12-11T07:06:07,2420,42.8014,5.9826,4330,272,186.491,57.118,13.310,36.038,36.618,41.202,4.584,295.8,545.2,291.2
2023-12-11T07:09:07,2420,42.8014,5.9826,4330,272,186.649,57.159,13.305,36.030,36.610,41.200,4.590,295.7,545.0,291.4
2023-12-11T07:12:07,2420,42.8014,5.9826,4330,272,186.399,57.084,13.306,36.046,36.626,41.213,4.587,295.7,545.1,291.3
2023-12-11T07:15:07,2420,42.8014,5.9826,4330,272,186.580,57.141,13.308,36.033,36.613,41.206,4.593,295.6,545.2,291.3
2023-12-11T07:18:08,2420,42.8014,5.9826,4330,272,186.235,57.035,13.307,36.056,36.636,41.219,4.583,295.6,545.1,291.3
2023-12-11T07:21:08,2420,42.8014,5.9826,4330,272,186.418,57.090,13.307,36.044,36.624,41.211,4.587,295.6,545.1,291.3
2023-12-11T07:24:08,2420,42.8014,5.9826,4330,272,186.437,57.094,13.305,36.044,36.624,41.211,4.588,295.6,545.1,291.4
2023-12-11T07:27:08,2420,42.8014,5.9826,4330,272,186.654,57.165,13.308,36.028,36.608,41.198,4.590,295.7,545.2,291.3
2023-12-11T07:30:07,2420,42.8014,5.9826,4330,272,186.604,57.150,13.309,36.031,36.611,41.202,4.591,295.7,545.1,291.3
2023-12-11T07:33:07,2420,42.8014,5.9826,4330,272,186.500,57.117,13.308,36.038,36.618,41.206,4.588,295.6,545.1,291.3
2023-12-11T07:36:07,2420,42.8014,5.9826,4330,272,186.645,57.158,13.305,36.030,36.610,41.196,4.586,295.7,545.1,291.4
2023-12-11T07:39:07,2420,42.8014,5.9826,4330,272,186.356,57.071,13.306,36.049,36.629,41.218,4.589,295.7,545.2,291.4
2023-12-11T07:42:08,2420,42.8014,5.9826,4330,272,186.544,57.127,13.305,36.036,36.616,41.199,4.583,295.8,545.1,291.4
2023-12-11T07:45:08,2420,42.8014,5.9826,4330,272,186.727,57.190,13.310,36.022,36.602,41.189,4.587,295.6,545.1,291.2
2023-12-11T07:48:08,2420,42.8014,5.9826,4330,272,186.372,57.075,13.306,36.047,36.627,41.217,4.590,295.7,545.1,291.4
2023-12-11T07:51:08,2420,42.8014,5.9826,4330,272,186.630,57.152,13.304,36.032,36.612,41.201,4.589,295.7,545.2,291.4
2023-12-11T07:54:07,2420,42.8014,5.9826,4330,272,186.764,57.193,13.304,36.023,36.603,41.194,4.591,295.7,545.1,291.4
2023-12-11T07:57:07,2420,42.8014,5.9826,4330,272,186.552,57.129,13.305,36.036,36.616,41.210,4.594,295.7,545.1,291.4
2023-12-11T08:00:08,2420,42.8014,5.9826,4330,272,186.830,57.216,13.306,36.017,36.598,41.189,4.592,295.8,545.1,291.4
2023-12-11T08:03:07,2420,42.8014,5.9826,4330,272,186.738,57.187,13.305,36.024,36.604,41.192,4.587,295.6,545.1,291.4
2023-12-11T08:06:07,2420,42.8014,5.9826,4330,272,186.281,57.047,13.305,36.054,36.634,41.220,4.586,295.7,545.1,291.4
2023-12-11T08:09:08,2420,42.8014,5.9826,4330,272,186.442,57.096,13.305,36.043,36.623,41.209,4.586,295.7,545.2,291.4
2023-12-11T08:12:08,2420,42.8014,5.9826,4330,272,186.786,57.202,13.306,36.021,36.601,41.196,4.596,295.7,545.1,291.4
2023-12-11T08:15:08,2420,42.8014,5.9826,4330,272,186.427,57.093,13.307,36.043,36.623,41.210,4.586,295.7,545.1,291.3
2023-12-11T08:18:08,2420,42.8014,5.9826,4330,272,186.402,57.086,13.307,36.045,36.625,41.215,4.590,295.7,545.1,291.3
2023-12-11T08:21:07,2420,42.8014,5.9826,4330,272,186.565,57.134,13.305,36.036,36.616,41.202,4.586,295.7,545.1,291.4
2023-12-11T08:24:07,2420,42.8014,5.9826,4330,272,186.453,57.101,13.307,36.042,36.622,41.212,4.590,295.7,545.0,291.3
2023-12-11T08:27:07,2420,42.8014,5.9826,4330,272,186.262,57.042,13.306,36.055,36.635,41.216,4.581,295.8,545.0,291.4
2023-12-11T08:30:08,2420,42.8014,5.9826,4330,272,186.413,57.086,13.304,36.045,36.625,41.211,4.586,295.7,545.1,291.4
2023-12-11T08:33:07,2420,42.8014,5.9826,4330,272,186.431,57.092,13.304,36.044,36.624,41.215,4.591,295.7,545.1,291.4
2023-12-11T08:36:08,2420,42.8014,5.9826,4330,272,186.514,57.118,13.305,36.039,36.619,41.207,4.588,295.7,545.1,291.4
2023-12-11T08:39:08,2420,42.8014,5.9826,4330,272,186.538,57.124,13.304,36.038,36.618,41.207,4.589,295.7,545.1,291.4
2023-12-11T08:42:08,2420,42.8014,5.9826,4330,272,186.560,57.134,13.306,36.035,36.615,41.210,4.595,295.6,545.1,291.3
2023-12-11T08:45:08,2420,42.8014,5.9826,4330,272,186.441,57.094,13.304,36.044,36.624,41.216,4.592,295.7,545.1,291.4
2023-12-11T08:48:08,2420,42.8014,5.9826,4330,272,186.622,57.151,13.305,36.031,36.611,41.199,4.588,295.7,545.1,291.4
2023-12-11T08:51:07,2420,42.8014,5.9826,4330,272,186.385,57.080,13.306,36.047,36.627,41.214,4.588,295.6,545.1,291.4
2023-12-11T08:54:07,2420,42.8014,5.9826,4330,272,186.462,57.102,13.305,36.042,36.622,41.210,4.587,295.7,545.1,291.4
2023-12-11T08:57:07,2420,42.8014,5.9826,4330,272,186.596,57.141,13.304,36.034,36.614,41.202,4.588,295.7,545.1,291.4
2023-12-11T09:00:07,2420,42.8014,5.9826,4330,272,186.381,57.075,13.304,36.048,36.627,41.212,4.584,295.6,545.1,291.4
2023-12-11T09:03:07,2420,42.8014,5.9826,4330,272,186.758,57.191,13.304,36.023,36.604,41.197,4.593,295.6,545.1,291.4
2023-12-11T09:06:07,2420,42.8014,5.9826,4330,272,186.505,57.114,13.304,36.040,36.620,41.202,4.582,295.7,545.1,291.4
2023-12-11T09:09:07,2420,42.8014,5.9826,4330,272,186.677,57.170,13.307,36.027,36.607,41.196,4.588,295.6,545.1,291.3
2023-12-11T09:12:08,2420,42.8014,5.9826,4330,272,186.394,57.080,13.305,36.047,36.627,41.214,4.587,295.6,545.1,291.4
2023-12-11T09:15:08,2420,42.8014,5.9826,4330,272,186.580,57.138,13.305,36.035,36.615,41.207,4.593,295.7,545.1,291.4
2023-12-11T09:18:08,2420,42.8014,5.9826,4330,272,186.519,57.119,13.305,36.039,36.619,41.206,4.587,295.7,545.0,291.4
2023-12-11T09:21:08,2420,42.8014,5.9826,4330,272,186.677,57.168,13.305,36.028,36.608,41.199,4.591,295.6,545.1,291.4
2023-12-11T09:24:07,2420,42.8014,5.9826,4330,272,186.454,57.100,13.305,36.042,36.622,41.210,4.588,295.7,545.1,291.4
2023-12-11T09:27:07,2420,42.8014,5.9826,4330,272,186.541,57.126,13.305,36.037,36.617,41.206,4.589,295.7,545.1,291.4
2023-12-11T09:30:07,2420,42.8014,5.9826,4330,272,186.585,57.140,13.306,36.034,36.614,41.208,4.594,295.7,545.1,291.4
2023-12-11T09:33:07,2420,42.8014,5.9826,4330,272,186.356,57.070,13.306,36.048,36.628,41.220,4.592,295.7,545.1,291.4
2023-12-11T09:36:07,2420,42.8014,5.9826,4330,272,186.611,57.153,13.309,36.030,36.610,41.205,4.594,295.6,545.1,291.2
2023-12-11T09:39:07,2420,42.8014,5.9826,4330,272,186.585,57.139,13.305,36.034,36.614,41.206,4.592,295.7,545.1,291.4
2023-12-11T09:42:07,2420,42.8014,5.9826,4330,272,186.439,57.093,13.303,36.044,36.624,41.214,4.590,295.7,545.0,291.4
2023-12-11T09:45:07,2420,42.8014,5.9826,4330,272,186.197,57.021,13.306,36.059,36.639,41.223,4.584,295.7,545.1,291.4
2023-12-11T09:48:08,2420,42.8014,5.9826,4330,272,186.388,57.078,13.304,36.047,36.627,41.215,4.588,295.6,545.1,291.4
2023-12-11T09:51:08,2420,42.8014,5.9826,4330,272,186.454,57.099,13.305,36.043,36.623,41.213,4.590,295.7,545.1,291.4
2023-12-11T09:54:08,2420,42.8014,5.9826,4330,272,186.363,57.075,13.308,36.047,36.627,41.213,4.586,295.7,545.1,291.3
2023-12-11T09:57:07,2420,42.8014,5.9826,4330,272,186.378,57.075,13.305,36.048,36.628,41.215,4.587,295.8,545.1,291.4
2023-12-11T10:00:07,2420,42.8014,5.9826,4330,272,186.392,57.079,13.304,36.047,36.627,41.218,4.591,295.7,545.1,291.4